WANGEN Weather Reports


Display with metric or nautical units.
time (UTC)temp
F
wind
direction
speed
MPH
gust
MPH
rain 1hr
in
rain 24hr
in
rain mn
in
humidity
%
barometer
mb
20260507013212 46 209 0.0 0.0 0.00 0.00 0.00 94 1010.6
20260507010211 46 209 0.0 0.0 0.00 0.00 0.00 94 1010.6
20260507003209 46 209 0.0 0.0 0.00 0.00 0.00 94 1010.3
20260507000209 46 209 0.0 0.0 0.00 0.00 0.00 93 1010.4
20260506233209 46 209 0.0 0.0 0.00 0.00 0.00 93 1010.4
20260506230209 47 209 0.0 0.0 0.00 0.00 0.00 93 1010.3
20260506223209 48 209 0.0 0.0 0.00 0.00 0.00 92 1010.2
20260506213209 48 209 0.0 0.0 0.00 0.00 0.02 92 1010.1
20260506210210 48 221 0.0 0.0 0.00 0.00 0.02 92 1009.9
20260506203210 49 221 0.0 0.0 0.00 0.00 0.02 91 1009.6
20260506200210 49 227 2.0 0.0 0.00 0.00 0.02 91 1009.6
20260506193215 50 214 4.0 0.0 0.00 0.00 0.02 91 1009.2
20260506190211 50 219 4.0 0.0 0.00 0.00 0.02 91 1008.7
20260506183209 51 261 8.0 0.0 0.00 0.00 0.02 91 1008.2
20260506180216 51 252 7.0 0.0 0.00 0.00 0.02 92 1008.2
20260506173210 51 218 4.0 0.0 0.00 0.00 0.02 92 1008.0
20260506170215 51 220 6.0 0.0 0.00 0.00 0.02 92 1007.6
20260506163210 51 230 3.0 0.0 0.00 0.00 0.02 92 1007.2
20260506160210 51 241 10.0 0.0 0.00 0.00 0.01 92 1007.6
20260506153210 50 269 12.0 0.0 0.00 0.00 0.00 91 1007.2
20260506150210 50 288 15.0 0.0 0.00 0.00 0.00 90 1007.2
20260506143210 52 265 25.0 0.0 0.00 0.00 0.00 82 1006.6
20260506140210 62 301 12.0 0.0 0.00 0.00 0.00 75 1004.7
20260506133211 61 188 8.0 0.0 0.00 0.00 0.00 81 1004.4
20260506130211 58 80 2.0 0.0 0.00 0.00 0.01 87 1004.1
20260506123210 59 193 6.0 0.0 0.00 0.00 0.00 81 1004.7
20260506120210 61 213 8.0 0.0 0.00 0.00 0.00 75 1004.0
20260506113217 62 218 5.0 0.0 0.00 0.00 0.00 70 1004.0
20260506110210 62 282 5.0 0.0 0.00 0.00 0.00 67 1004.3
20260506100213 61 311 8.0 0.0 0.00 0.00 0.00 72 1004.5
20260506093211 58 43 6.0 0.0 0.00 0.00 0.00 77 1004.7
20260506090211 58 279 0.0 0.0 0.00 0.00 0.00 80 1005.0
20260506083211 57 49 0.0 0.0 0.00 0.00 0.00 88 1005.1
20260506080212 54 50 0.0 0.0 0.00 0.00 0.00 93 1005.0
20260506073211 53 32 0.0 0.0 0.00 0.00 0.00 93 1005.1
20260506070212 52 355 4.0 0.0 0.00 0.00 0.00 94 1004.9
20260506060210 50 168 0.0 0.0 0.00 0.00 0.00 95 1005.4
20260506050211 48 41 0.0 0.0 0.00 0.00 0.00 95 1005.7
20260506043211 48 41 0.0 0.0 0.00 0.00 0.00 95 1005.9
20260506040211 48 41 0.0 0.0 0.00 0.00 0.00 95 1006.2
20260506033211 48 41 0.0 0.0 0.00 0.00 0.00 95 1006.5
20260506030212 48 14 0.0 0.0 0.00 0.00 0.00 95 1006.7
20260506023211 49 14 0.0 0.0 0.00 0.00 0.00 95 1007.0
20260506020212 49 24 0.0 0.0 0.00 0.00 0.00 95 1007.3